Fort Rucker / Ozark, AL

5:53 AM CDT on May 29, 2017 (GMT -0500)
Fort Rucker / Ozark

Weather History for KLOR - December, 2012

Change the Weather History Date:

Thursday, December 6, 2012

  Actual Average (KOZR) Record (KOZR)
Temperature  
Mean Temperature 62 °F -  
Max Temperature 75 °F 61 °F 80 °F (2013)
Min Temperature 48 °F 41 °F 26 °F (2000)
Degree Days  
Heating Degree Days 4    
Growing Degree Days 12 (Base 50)    
Moisture  
Dew Point 52 °F    
Average Humidity 74    
Maximum Humidity 93    
Minimum Humidity 44    
Precipitation  
Precipitation 0.01 in - - ()
Sea Level Pressure  
Sea Level Pressure 30.03 in    
Wind  
Wind Speed 2 mph (ENE)    
Max Wind Speed 8 mph    
Max Gust Speed -    
Visibility 10 miles    
Events      
Averages and records for this station are not official NWS values.
T = Trace of Precipitation, MM = Missing Value Source: NWS Daily Summary

Daily Weather History Graph

Daily Weather History Graph

Search for Another Location

Airport or City:

Trip Planner

Search our weather history database for the weather conditions in past years. The results will help you decide how hot, cold, wet, or windy it might be!

Date:

Astronomy

Dec. 06, 2012 Rise Set
Actual Time 6:28 AM CST 4:39 PM CST
Civil Twilight 6:01 AM CST 5:06 PM CST
Nautical Twilight 5:31 AM CST 5:36 PM CST
Astronomical Twilight 5:02 AM CST 6:06 PM CST
Moon No Moon Rise 11:42 AM CST (12/6)
Length of Visible Light 11h 04m
Length of Day
10h 11m
Waning Gibbous, 49% of the Moon is Illuminated
Dec 6
Waning Gibbous
Dec 13
New
Dec 19
First Quarter
Dec 28
Full
Jan 4
Last Quarter

Hourly Weather History & Observations

Time (CST) Temp. Dew Point Humidity Pressure Visibility Wind Dir Wind Speed Gust Speed Precip Events Conditions
12:53 AM 52.0 °F 50.0 °F 93% 30.06 in 10.0 mi Calm Calm - N/A   Clear
1:53 AM 51.1 °F 48.9 °F 92% 30.05 in 9.0 mi Calm Calm - N/A   Clear
2:53 AM 50.0 °F 48.0 °F 93% 30.04 in 10.0 mi Calm Calm - N/A   Clear
3:53 AM 50.0 °F 46.9 °F 89% 30.04 in 9.0 mi Calm Calm - N/A   Clear
4:53 AM 48.9 °F 46.9 °F 93% 30.05 in 8.0 mi Calm Calm - N/A   Clear
5:53 AM 48.0 °F 46.0 °F 93% 30.06 in 10.0 mi Calm Calm - N/A   Clear
6:53 AM 50.0 °F 46.9 °F 89% 30.08 in 10.0 mi NE 3.5 mph - N/A   Clear
7:53 AM 53.1 °F 50.0 °F 89% 30.09 in 9.0 mi NE 5.8 mph - N/A   Clear
8:53 AM 63.0 °F 54.0 °F 72% 30.08 in 10.0 mi Variable 3.5 mph - 0.01 in   Clear
9:53 AM 69.1 °F 55.9 °F 63% 30.08 in 10.0 mi Calm Calm - N/A   Clear
10:53 AM 72.0 °F 54.0 °F 53% 30.05 in 10.0 mi Variable 5.8 mph - N/A   Clear
11:53 AM 73.9 °F 52.0 °F 46% 30.03 in 10.0 mi ENE 8.1 mph - N/A   Clear
12:53 PM 75.0 °F 52.0 °F 44% 30.00 in 10.0 mi Variable 3.5 mph - N/A   Partly Cloudy
1:53 PM 75.9 °F 54.0 °F 46% 29.99 in 10.0 mi ENE 5.8 mph - N/A   Mostly Cloudy
2:53 PM 73.0 °F 54.0 °F 51% 29.99 in 10.0 mi ENE 4.6 mph - N/A   Overcast
3:53 PM 72.0 °F 54.0 °F 53% 29.99 in 10.0 mi East 4.6 mph - N/A   Mostly Cloudy
4:53 PM 68.0 °F 55.0 °F 63% 30.00 in 10.0 mi Calm Calm - N/A   Clear
5:53 PM 64.9 °F 55.9 °F 73% 30.01 in 10.0 mi Calm Calm - N/A   Clear
6:53 PM 64.0 °F 55.9 °F 75% 30.01 in 10.0 mi Calm Calm - N/A   Clear
7:53 PM 63.0 °F 55.9 °F 78% 30.01 in 10.0 mi ENE 4.6 mph - N/A   Scattered Clouds
8:53 PM 62.1 °F 55.0 °F 78% 30.02 in 10.0 mi Variable 4.6 mph - N/A   Clear
9:53 PM 61.0 °F 55.0 °F 81% 30.03 in 10.0 mi ENE 3.5 mph - N/A   Clear
10:53 PM 60.1 °F 55.0 °F 83% 30.03 in 10.0 mi NE 3.5 mph - N/A   Partly Cloudy
11:18 PM 60.8 °F 55.4 °F 82% 30.02 in 10.0 mi ENE 4.6 mph - N/A   Mostly Cloudy
11:53 PM 60.1 °F 55.9 °F 86% 30.01 in 10.0 mi Variable 3.5 mph - N/A   Mostly Cloudy